FW2471 Weather Reports


time (UTC)temp
F
wind
direction
speed
knots
gust
knots
rain 1hr
in
rain 24hr
in
rain mn
in
humidity
%
barometer
mb
20260506034106 51 59 1.7 5.2 0.00 0.00 0.00 49 1017.4
20260506033605 51 73 0.9 5.2 0.00 0.00 0.00 49 1017.1
20260506033107 51 97 1.7 5.2 0.00 0.00 0.00 48 1017.3
20260506032606 51 124 0.9 2.6 0.00 0.00 0.00 50 1017.1
20260506032105 51 89 1.7 3.5 0.00 0.00 0.00 48 1017.0
20260506031105 51 104 1.7 3.5 0.00 0.00 0.00 47 1017.0
20260506030106 51 123 1.7 8.7 0.00 0.00 0.00 46 1016.9
20260506025606 51 164 1.7 5.2 0.00 0.00 0.00 47 1017.0
20260506025106 51 79 1.7 10.4 0.00 0.00 0.00 46 1016.8
20260506024606 51 62 0.0 10.4 0.00 0.00 0.00 46 1017.0
20260506024106 51 102 1.7 7.8 0.00 0.00 0.00 47 1016.9
20260506023605 51 39 2.6 5.2 0.00 0.00 0.00 47 1016.8
20260506023105 51 152 2.6 5.2 0.00 0.00 0.00 47 1016.8
20260506022104 52 340 2.6 13.0 0.00 0.00 0.00 48 1016.6
20260506021604 51 152 4.3 13.0 0.00 0.00 0.00 48 1016.5
20260506021104 51 23 0.9 10.4 0.00 0.00 0.00 49 1016.4
20260506020604 52 114 1.7 10.4 0.00 0.00 0.00 48 1016.3
20260506020105 52 299 3.5 8.7 0.00 0.00 0.00 48 1016.3
20260506014604 52 214 3.5 11.3 0.00 0.00 0.00 47 1016.0
20260506014103 52 131 1.7 11.3 0.00 0.00 0.00 47 1016.0
20260506013103 52 149 1.7 8.7 0.00 0.00 0.00 46 1015.9
20260506012604 52 55 3.5 8.7 0.00 0.00 0.00 45 1015.9
20260506011605 52 355 1.7 7.8 0.00 0.00 0.00 46 1015.9
20260506010603 53 86 1.7 8.7 0.00 0.00 0.00 47 1015.9
20260506005602 53 63 7.0 10.4 0.00 0.00 0.00 48 1016.0
20260506005102 53 140 2.6 5.2 0.00 0.00 0.00 50 1015.8
20260506004604 53 79 0.9 6.1 0.00 0.00 0.00 50 1015.8
20260506004102 53 220 1.7 6.1 0.00 0.00 0.00 49 1015.6
20260506003601 53 47 0.9 9.6 0.00 0.00 0.00 50 1015.9
20260506003101 53 24 3.5 9.6 0.00 0.00 0.00 50 1015.8
20260506002601 53 116 4.3 10.4 0.00 0.00 0.00 51 1015.9
20260506002101 53 61 2.6 10.4 0.00 0.00 0.00 51 1015.8
20260506001602 53 151 3.5 16.5 0.00 0.00 0.00 52 1016.0
20260506000601 53 111 2.6 15.6 0.00 0.00 0.00 52 1015.8
20260505235601 53 131 3.5 11.3 0.00 0.00 0.00 52 1015.9
20260505235100 53 113 3.5 13.9 0.00 0.00 0.00 53 1015.8
20260505234601 53 111 4.3 19.1 0.00 0.00 0.00 52 1015.8
20260505234100 53 302 6.1 19.1 0.00 0.00 0.00 53 1016.0
20260505233600 53 59 5.2 13.9 0.00 0.00 0.00 52 1015.8
20260505233100 53 148 3.5 13.9 0.00 0.00 0.00 53 1015.6
20260505232601 53 251 3.5 11.3 0.00 0.00 0.00 52 1015.8
20260505232101 53 120 5.2 11.3 0.00 0.00 0.00 52 1015.6
20260505231100 53 300 4.3 12.2 0.00 0.00 0.00 53 1015.9
20260505230605 53 149 4.3 15.6 0.00 0.00 0.00 53 1015.9
20260505230101 54 321 7.0 15.6 0.00 0.00 0.00 53 1015.9
20260505225559 54 102 3.5 13.9 0.00 0.00 0.00 55 1016.0
20260505225059 54 288 2.6 11.3 0.00 0.00 0.00 53 1015.8
20260505224559 54 72 4.3 14.8 0.00 0.00 0.00 54 1015.9
20260505224059 54 109 7.0 14.8 0.00 0.00 0.00 52 1015.9
20260505223559 54 107 4.3 17.4 0.00 0.00 0.00 53 1015.8
20260505223058 54 114 7.0 17.4 0.00 0.00 0.00 52 1015.6
20260505221559 55 121 6.1 15.6 0.00 0.00 0.00 51 1015.8
20260505221059 55 214 2.6 15.6 0.00 0.00 0.00 52 1016.0
20260505220558 55 104 6.1 12.2 0.00 0.00 0.00 51 1015.9
20260505220057 55 155 5.2 13.0 0.00 0.00 0.00 53 1015.9
20260505215559 54 68 4.3 13.0 0.00 0.00 0.00 53 1016.1
20260505215059 54 140 5.2 13.0 0.00 0.00 0.00 53 1016.1
20260505214558 54 69 2.6 13.0 0.00 0.00 0.00 55 1016.0
20260505213057 54 123 3.5 16.5 0.00 0.00 0.00 54 1016.3
20260505212557 54 124 7.8 17.4 0.00 0.00 0.00 54 1016.8
20260505212056 54 92 5.2 17.4 0.00 0.00 0.00 54 1016.5
20260505211558 54 110 7.0 17.4 0.00 0.00 0.00 53 1016.5
20260505211058 54 56 7.8 17.4 0.00 0.00 0.00 53 1016.5
20260505210556 54 305 4.3 14.8 0.00 0.00 0.00 55 1016.9
20260505205556 54 63 5.2 15.6 0.00 0.00 0.00 56 1016.6
20260505204557 54 124 4.3 14.8 0.00 0.00 0.00 59 1016.9
20260505203556 52 41 4.3 18.2 0.00 0.00 0.00 60 1016.9
20260505203055 53 227 7.8 18.2 0.00 0.00 0.00 60 1017.3
20260505202556 53 80 6.1 16.5 0.00 0.00 0.00 59 1017.0
20260505202055 52 149 2.6 16.5 0.00 0.00 0.00 63 1017.1
20260505201556 52 54 5.2 13.0 0.00 0.00 0.00 63 1017.3
20260505201055 52 82 5.2 13.0 0.00 0.00 0.00 65 1017.1
20260505200555 51 117 4.3 13.9 0.00 0.00 0.00 71 1017.1
20260505200055 50 65 3.5 13.9 0.00 0.00 0.00 69 1017.4
20260505195055 50 142 4.3 13.0 0.00 0.00 0.00 68 1017.6
20260505194054 51 103 5.2 13.0 0.00 0.00 0.00 66 1017.4
20260505193554 51 79 5.2 15.6 0.00 0.00 0.00 70 1017.5
20260505193054 52 182 7.0 15.6 0.00 0.00 0.00 63 1017.5
20260505192555 52 333 4.3 16.5 0.00 0.00 0.00 63 1017.4
20260505192055 53 109 6.1 16.5 0.00 0.00 0.00 63 1017.5
20260505191555 53 47 2.6 17.4 0.00 0.00 0.00 59 1017.4
20260505191054 53 55 6.1 17.4 0.00 0.00 0.00 58 1017.6
20260505190555 53 89 5.2 14.8 0.00 0.00 0.00 56 1017.6
20260505185054 55 87 5.2 14.8 0.00 0.00 0.00 51 1017.6
20260505184555 56 99 6.1 14.8 0.00 0.00 0.00 47 1017.6
20260505184054 57 32 5.2 14.8 0.00 0.00 0.00 47 1017.1
20260505183554 56 18 6.1 14.8 0.00 0.00 0.00 47 1017.1
20260505182554 55 58 3.5 18.2 0.00 0.00 0.00 48 1017.3
20260505182054 55 82 7.8 20.0 0.00 0.00 0.00 49 1017.5
20260505181053 55 18 6.1 17.4 0.00 0.00 0.00 47 1017.8
20260505180555 57 42 7.8 17.4 0.00 0.00 0.00 46 1017.8
20260505180054 57 86 7.8 17.4 0.00 0.00 0.00 46 1017.8
20260505175554 57 137 7.0 17.4 0.00 0.00 0.00 45 1017.5
20260505175053 58 124 4.3 17.4 0.00 0.00 0.00 45 1017.4
20260505174553 57 68 6.1 12.2 0.00 0.00 0.00 49 1017.4
20260505174053 56 141 5.2 19.1 0.00 0.00 0.00 47 1017.4
20260505173553 56 358 10.4 19.1 0.00 0.00 0.00 46 1017.6
20260505172553 58 54 7.8 18.2 0.00 0.00 0.00 43 1017.4
20260505171553 57 209 5.2 10.4 0.00 0.00 0.00 41 1017.5
20260505171052 56 106 2.6 18.2 0.00 0.00 0.00 43 1017.6
20260505170552 56 86 9.6 18.2 0.00 0.00 0.00 40 1017.4
20260505170049 56 141 5.2 24.3 0.00 0.00 0.00 42 1017.6
20260505165552 55 38 4.3 24.3 0.00 0.00 0.00 41 1017.4
20260505165052 56 92 7.8 20.9 0.00 0.00 0.00 42 1017.1
20260505164552 55 63 6.1 12.2 0.00 0.00 0.00 39 1017.4
20260505164051 55 104 3.5 10.4 0.00 0.00 0.00 43 1017.1
20260505163552 55 76 4.3 13.9 0.00 0.00 0.00 40 1017.5
20260505163051 55 75 5.2 19.1 0.00 0.00 0.00 40 1017.4
20260505162051 55 80 7.0 15.6 0.00 0.00 0.00 39 1017.6
20260505161051 56 78 5.2 18.2 0.00 0.00 0.00 37 1017.4
20260505160551 55 75 1.7 12.2 0.00 0.00 0.00 40 1017.6
20260505152050 54 79 5.2 13.0 0.00 0.00 0.00 40 1017.3
20260505151549 54 17 7.8 14.8 0.00 0.00 0.00 41 1017.3
20260505151048 53 92 5.2 20.0 0.00 0.00 0.00 43 1016.9
20260505150549 53 100 5.2 20.0 0.00 0.00 0.00 45 1017.3
20260505140547 51 130 3.5 16.5 0.00 0.00 0.00 49 1017.4
20260505124545 50 80 5.2 12.2 0.00 0.00 0.00 47 1015.9
20260505124045 50 69 4.3 14.8 0.00 0.00 0.00 48 1015.9
20260505122545 50 127 6.1 17.4 0.00 0.00 0.00 47 1015.4
20260505122044 50 125 7.8 17.4 0.00 0.00 0.00 47 1015.4
20260505121545 50 316 6.1 14.8 0.00 0.00 0.00 47 1015.4
20260505115543 51 196 3.5 12.2 0.00 0.00 0.00 47 1015.4
20260505115043 51 85 7.0 14.8 0.00 0.00 0.00 47 1015.0
20260505114545 51 11 5.2 14.8 0.00 0.00 0.00 46 1015.0
20260505114045 51 110 5.2 14.8 0.00 0.00 0.00 46 1015.1
20260505113544 51 100 4.3 13.0 0.00 0.00 0.00 46 1015.1
20260505113044 51 99 7.0 14.8 0.00 0.00 0.00 45 1015.1
20260505112543 51 75 7.0 20.9 0.00 0.00 0.00 46 1015.1
20260505112043 51 111 2.6 20.9 0.00 0.00 0.00 46 1015.1
20260505111544 51 85 6.1 13.9 0.00 0.00 0.00 46 1015.1
20260505111042 52 118 7.0 13.9 0.00 0.00 0.00 45 1014.9
20260505110543 52 148 5.2 12.2 0.00 0.00 0.00 45 1015.0
20260505102042 53 131 3.5 13.9 0.00 0.00 0.00 44 1015.0
20260505101541 53 86 6.1 13.9 0.00 0.00 0.00 43 1014.9
20260505101042 53 86 3.5 13.0 0.00 0.00 0.00 43 1015.1
20260505100541 53 144 5.2 16.5 0.00 0.00 0.00 43 1015.0
20260505095541 53 89 5.2 13.0 0.00 0.00 0.00 42 1015.3
20260505095040 53 96 5.2 14.8 0.00 0.00 0.00 41 1015.3
20260505094541 53 107 7.8 19.1 0.00 0.00 0.00 41 1015.5
20260505093543 53 68 5.2 13.9 0.00 0.00 0.00 41 1015.3
20260505093042 53 135 3.5 13.9 0.00 0.00 0.00 40 1015.3
20260505092542 53 69 7.0 15.6 0.00 0.00 0.00 40 1015.4
20260505092041 53 99 7.0 15.6 0.00 0.00 0.00 40 1015.4
20260505091542 54 96 6.1 17.4 0.00 0.00 0.00 40 1015.3
20260505090542 54 45 3.5 13.9 0.00 0.00 0.00 40 1015.5
20260505090041 54 161 5.2 13.9 0.00 0.00 0.00 40 1015.4
20260505085541 54 168 7.0 17.4 0.00 0.00 0.00 39 1015.9
20260505085040 54 117 3.5 17.4 0.00 0.00 0.00 39 1016.0
20260505084541 54 113 5.2 12.2 0.00 0.00 0.00 39 1016.3
20260505084041 54 107 5.2 13.0 0.00 0.00 0.00 39 1016.1
20260505082540 54 61 4.3 14.8 0.00 0.00 0.00 39 1016.5
20260505082041 54 111 4.3 14.8 0.00 0.00 0.00 39 1016.6
20260505081541 54 82 5.2 13.9 0.00 0.00 0.00 39 1016.5
20260505081041 54 16 4.3 11.3 0.00 0.00 0.00 39 1016.6
20260505080040 54 135 6.1 14.8 0.00 0.00 0.00 39 1017.1
20260505075539 54 51 5.2 14.8 0.00 0.00 0.00 39 1016.9
20260505075039 54 27 4.3 14.8 0.00 0.00 0.00 39 1016.9
20260505074040 54 353 2.6 10.4 0.00 0.00 0.00 41 1017.0
20260505073538 54 38 5.2 13.9 0.00 0.00 0.00 40 1016.9
20260505073038 54 113 4.3 13.9 0.00 0.00 0.00 39 1016.9
20260505072537 54 61 4.3 14.8 0.00 0.00 0.00 40 1017.3
20260505072037 54 20 5.2 14.8 0.00 0.00 0.00 40 1017.0
20260505071537 54 124 2.6 13.0 0.00 0.00 0.00 40 1017.0
20260505070537 54 92 5.2 13.9 0.00 0.00 0.00 40 1016.9
20260505065538 53 58 3.5 10.4 0.00 0.00 0.00 39 1016.8
20260505065037 53 92 3.5 13.0 0.00 0.00 0.00 39 1016.9
20260505064537 53 65 4.3 13.0 0.00 0.00 0.00 39 1017.0
20260505064038 53 97 3.5 9.6 0.00 0.00 0.00 40 1017.0
20260505063538 54 103 3.5 12.2 0.00 0.00 0.00 38 1017.1
20260505063038 54 124 5.2 12.2 0.00 0.00 0.00 37 1017.0
20260505062536 54 340 3.5 13.0 0.00 0.00 0.00 37 1017.0
20260505062032 54 262 3.5 13.0 0.00 0.00 0.00 35 1017.0
20260505061532 54 79 1.7 8.7 0.00 0.00 0.00 35 1017.1
20260505061031 55 87 3.5 23.5 0.00 0.00 0.00 34 1017.1
20260505060532 55 78 4.3 23.5 0.00 0.00 0.00 32 1017.1
20260505060031 55 89 5.2 13.9 0.00 0.00 0.00 33 1017.1
20260505055532 55 168 5.2 13.9 0.00 0.00 0.00 32 1016.9
20260505054532 56 14 6.1 13.0 0.00 0.00 0.00 32 1016.8
20260505053531 56 157 5.2 16.5 0.00 0.00 0.00 31 1016.9
20260505053032 56 31 6.1 15.6 0.00 0.00 0.00 32 1017.0
20260505052532 56 235 5.2 15.6 0.00 0.00 0.00 31 1017.0
20260505052032 56 106 3.5 19.1 0.00 0.00 0.00 31 1017.1
20260505051032 56 134 5.2 13.0 0.00 0.00 0.00 32 1017.4
20260505050532 56 87 4.3 11.3 0.00 0.00 0.00 32 1017.1
20260505041502 57 241 4.3 16.5 0.00 0.00 0.00 31 1017.4
20260505040502 57 125 5.2 13.9 0.00 0.00 0.00 31 1017.5
20260505040004 57 289 4.3 13.0 0.00 0.00 0.00 31 1017.8
20260505035503 58 103 5.2 13.0 0.00 0.00 0.00 31 1017.8